Valdosta, GA

8:01 AM EDT on September 25, 2017 (GMT -0400)
Moody Air Force Base

Weather History for KVAD - April, 2013

Change the Weather History Date:

Wednesday, April 3, 2013

  Actual Average Record
Temperature  
Mean Temperature 62 °F -  
Max Temperature 73 °F 75 °F 89 °F (2012)
Min Temperature 52 °F 54 °F 47 °F (2011)
Degree Days  
Heating Degree Days 2    
Growing Degree Days 12 (Base 50)    
Moisture  
Dew Point 59 °F    
Average Humidity 90    
Maximum Humidity 100    
Minimum Humidity 60    
Precipitation  
Precipitation 0.89 in - - ()
Sea Level Pressure  
Sea Level Pressure 30.06 in    
Wind  
Wind Speed 7 mph (ENE)    
Max Wind Speed 18 mph    
Max Gust Speed 24 mph    
Visibility 7 miles    
Events Rain    
Averages and records for this station are not official NWS values.
T = Trace of Precipitation, MM = Missing Value Source: NWS Daily Summary

Daily Weather History Graph

Daily Weather History Graph

Search for Another Location

Airport or City:

Trip Planner

Search our weather history database for the weather conditions in past years. The results will help you decide how hot, cold, wet, or windy it might be!

Date:

Astronomy

Apr. 03, 2013 Rise Set
Actual Time 7:18 AM EDT 7:53 PM EDT
Civil Twilight 6:54 AM EDT 8:17 PM EDT
Nautical Twilight 6:25 AM EDT 8:46 PM EDT
Astronomical Twilight 5:56 AM EDT 9:15 PM EDT
Moon 2:33 AM EDT (4/3) 1:28 PM EDT (4/3)
Length of Visible Light 13h 23m
Length of Day
12h 34m
Last Quarter, 45% of the Moon is Illuminated
Apr 3
Last Quarter
Apr 10
New
Apr 18
First Quarter
Apr 25
Full
May 2
Last Quarter

Hourly Weather History & Observations

Time (EDT) Temp. Dew Point Humidity Pressure Visibility Wind Dir Wind Speed Gust Speed Precip Events Conditions
12:22 AM 59.0 °F 48.2 °F 67% 30.09 in 8.0 mi Variable 3.5 mph - N/A   Clear
12:24 AM 59.0 °F 48.2 °F 67% 30.09 in 4.0 mi East 2.3 mph - N/A   Haze
12:34 AM 59.0 °F 48.2 °F 67% 30.08 in 9.0 mi East 4.6 mph - N/A   Clear
12:36 AM 59.0 °F 48.2 °F 67% 30.08 in 10.0 mi ESE 5.8 mph - N/A   Clear
12:58 AM 60.1 °F 48.4 °F 65% 30.09 in 10.0 mi SE 8.1 mph - N/A   Clear
1:58 AM 58.5 °F 47.3 °F 66% 30.09 in 10.0 mi SSE 6.9 mph - N/A   Clear
2:58 AM 58.5 °F 46.2 °F 64% 30.06 in 10.0 mi SSE 6.9 mph - N/A   Clear
3:58 AM 57.2 °F 46.0 °F 66% 30.05 in 10.0 mi Calm Calm - N/A   Clear
4:58 AM 52.7 °F 46.6 °F 80% 30.05 in 10.0 mi NNE 1.2 mph - N/A   Clear
5:58 AM 54.0 °F 49.3 °F 84% 30.06 in 10.0 mi East 2.3 mph - N/A   Scattered Clouds
6:58 AM 54.5 °F 49.1 °F 82% 30.07 in 10.0 mi ENE 2.3 mph - N/A   Clear
7:58 AM 56.3 °F 50.2 °F 80% 30.09 in 10.0 mi East 3.5 mph - N/A   Scattered Clouds
8:58 AM 62.4 °F 52.5 °F 70% 30.08 in 10.0 mi ESE 9.2 mph - N/A   Scattered Clouds
9:58 AM 68.9 °F 55.0 °F 61% 30.09 in 10.0 mi SE 5.8 mph - N/A   Overcast
10:58 AM 68.5 °F 55.8 °F 64% 30.10 in 10.0 mi East 5.8 mph - N/A   Mostly Cloudy
11:58 AM 70.7 °F 57.2 °F 62% 30.08 in 10.0 mi ENE 5.8 mph - N/A   Mostly Cloudy
12:58 PM 72.7 °F 58.3 °F 60% 30.06 in 10.0 mi East 10.4 mph - N/A   Overcast
1:58 PM 72.5 °F 58.6 °F 62% 30.07 in 10.0 mi NE 6.9 mph - N/A   Overcast
2:31 PM 73.4 °F 59.0 °F 61% 30.06 in 10.0 mi NNE 8.1 mph - N/A Rain Light Rain
2:58 PM 70.0 °F 61.0 °F 73% 30.07 in 8.0 mi NNE 5.8 mph - 0.00 in Rain Light Rain
3:18 PM 68.0 °F 64.4 °F 88% 30.06 in 7.0 mi Variable 1.2 mph - N/A Rain Light Rain
3:40 PM 66.2 °F 64.4 °F 94% 30.07 in 3.0 mi West 9.2 mph - N/A Rain Rain
3:44 PM 66.2 °F 64.4 °F 94% 30.07 in 3.0 mi West 8.1 mph - N/A Rain Rain
3:46 PM 66.2 °F 64.4 °F 94% 30.07 in 3.0 mi West 8.1 mph - N/A Rain Rain
3:50 PM 64.4 °F 64.4 °F 100% 30.07 in 3.0 mi WNW 6.9 mph - N/A Rain Rain
3:54 PM 64.4 °F 64.4 °F 100% 30.07 in 2.5 mi West 6.9 mph - N/A Rain Rain
3:58 PM 64.9 °F 64.8 °F 99% 30.08 in 2.5 mi WNW 6.9 mph - 0.14 in Rain Rain
4:00 PM 64.4 °F 64.4 °F 100% 30.07 in 2.0 mi NW 5.8 mph - N/A Rain Rain
4:16 PM 64.4 °F 64.4 °F 100% 30.06 in 3.0 mi NW 4.6 mph - N/A Rain Rain
4:26 PM 64.4 °F 64.4 °F 100% 30.07 in 2.5 mi West 2.3 mph - N/A Rain Rain
4:28 PM 64.4 °F 64.4 °F 100% 30.07 in 1.5 mi Variable 1.2 mph - N/A Rain Rain
4:30 PM 64.4 °F 64.4 °F 100% 30.07 in 1.2 mi North 3.5 mph - N/A Rain Rain
4:34 PM 64.4 °F 62.6 °F 94% 30.07 in 1.0 mi North 6.9 mph - N/A Rain Heavy Rain
4:36 PM 64.4 °F 62.6 °F 94% 30.07 in 1.2 mi North 6.9 mph - N/A Rain Heavy Rain
4:38 PM 64.4 °F 62.6 °F 94% 30.07 in 1.5 mi NNW 5.8 mph - N/A Rain Heavy Rain
4:40 PM 64.4 °F 62.6 °F 94% 30.07 in 2.0 mi North 5.8 mph - N/A Rain Heavy Rain
4:44 PM 64.4 °F 62.6 °F 94% 30.07 in 3.0 mi North 5.8 mph - N/A Rain Heavy Rain
4:58 PM 62.6 °F 62.6 °F 100% 30.08 in 5.0 mi NNE 6.9 mph - 0.31 in Rain Rain
5:04 PM 62.6 °F 62.6 °F 100% 30.07 in 5.0 mi NNE 6.9 mph - N/A Rain Rain
5:42 PM 62.6 °F 62.6 °F 100% 30.08 in 2.5 mi North 6.9 mph - N/A Rain Rain
5:46 PM 62.6 °F 62.6 °F 100% 30.08 in 1.8 mi North 10.4 mph - N/A Rain Heavy Rain
5:52 PM 62.6 °F 62.6 °F 100% 30.08 in 2.0 mi NNE 10.4 mph - N/A Rain Heavy Rain
5:54 PM 62.6 °F 62.6 °F 100% 30.07 in 3.0 mi NNE 9.2 mph - N/A Rain Heavy Rain
5:58 PM 62.6 °F 62.6 °F 100% 30.08 in 4.0 mi NNE 10.4 mph - 0.28 in Rain Rain
6:58 PM 61.0 °F 60.6 °F 99% 30.06 in 10.0 mi ENE 9.2 mph - 0.04 in Rain Light Rain
7:10 PM 60.8 °F 60.8 °F 100% 30.05 in 9.0 mi ENE 8.1 mph - N/A Rain Light Rain
7:24 PM 60.8 °F 60.8 °F 100% 30.06 in 5.0 mi ENE 8.1 mph - N/A Rain Rain
7:28 PM 60.8 °F 60.8 °F 100% 30.06 in 5.0 mi NE 8.1 mph - N/A Rain Light Rain
7:30 PM 60.8 °F 60.8 °F 100% 30.06 in 5.0 mi ENE 9.2 mph - N/A Rain Light Rain
7:32 PM 60.8 °F 60.8 °F 100% 30.06 in 6.0 mi NE 6.9 mph - N/A Rain Light Rain
7:38 PM 60.8 °F 60.8 °F 100% 30.05 in 6.0 mi ENE 13.8 mph - N/A Rain Light Rain
7:48 PM 60.8 °F 60.8 °F 100% 30.05 in 7.0 mi ENE 9.2 mph - N/A Rain Light Rain
7:58 PM 60.8 °F 60.8 °F 100% 30.06 in 7.0 mi East 11.5 mph 17.3 mph 0.09 in Rain Light Rain
8:00 PM 60.8 °F 60.8 °F 100% 30.05 in 7.0 mi East 12.7 mph 19.6 mph N/A Rain Light Rain
8:02 PM 60.8 °F 60.8 °F 100% 30.05 in 7.0 mi East 12.7 mph 19.6 mph N/A Rain Light Rain
8:04 PM 60.8 °F 60.8 °F 100% 30.05 in 7.0 mi East 12.7 mph 19.6 mph N/A Rain Light Rain
8:06 PM 60.8 °F 60.8 °F 100% 30.04 in 7.0 mi East 12.7 mph 19.6 mph N/A Rain Light Rain
8:14 PM 60.8 °F 60.8 °F 100% 30.02 in 9.0 mi East 15.0 mph - N/A Rain Light Rain
8:16 PM 60.8 °F 60.8 °F 100% 30.01 in 10.0 mi East 18.4 mph - N/A Rain Light Rain
8:22 PM 60.8 °F 60.8 °F 100% 30.00 in 10.0 mi East 13.8 mph 24.2 mph N/A Rain Light Rain
8:34 PM 60.8 °F 60.8 °F 100% 30.01 in 10.0 mi East 13.8 mph - N/A Rain Light Rain
8:40 PM 60.8 °F 60.8 °F 100% 30.01 in 10.0 mi East 16.1 mph - N/A Rain Light Rain
8:44 PM 60.8 °F 60.8 °F 100% 30.01 in 10.0 mi East 16.1 mph - N/A   Overcast
8:52 PM 60.8 °F 60.8 °F 100% 30.02 in 10.0 mi East 11.5 mph 20.7 mph N/A   Overcast
8:58 PM 60.8 °F 60.4 °F 99% 30.03 in 10.0 mi East 10.4 mph - 0.03 in   Overcast
9:22 PM 60.8 °F 60.8 °F 100% 30.04 in 10.0 mi East 9.2 mph 20.7 mph N/A   Overcast
9:28 PM 60.8 °F 60.8 °F 100% 30.04 in 10.0 mi East 10.4 mph - N/A   Overcast
9:58 PM 61.0 °F 60.6 °F 99% 30.05 in 10.0 mi East 12.7 mph - N/A   Overcast
10:18 PM 60.8 °F 59.0 °F 94% 30.06 in 10.0 mi East 10.4 mph - N/A   Overcast
10:50 PM 59.0 °F 59.0 °F 100% 30.06 in 10.0 mi East 10.4 mph - N/A   Overcast
10:58 PM 58.3 °F 57.9 °F 99% 30.07 in 10.0 mi East 10.4 mph - N/A   Overcast
11:10 PM 57.2 °F 57.2 °F 100% 30.06 in 10.0 mi ENE 11.5 mph - N/A   Overcast
11:55 PM 57.2 °F 57.2 °F 100% 30.06 in 10.0 mi East 9.2 mph - N/A   Overcast